User: anonymous   Login
Location: Unspecified
(50.0412°N, 0.0000°E)
Time: 20:34:57
(UTC+00:00)
Language:

Meteor 3-4 - Orbit

View from above orbital plane
View from above orbital plane
View from above satellite
View from above satellite

Ground track
Ground track

The orbit is defined by the following mean orbital elements,

1 21232U          26087.94075020 +.00000000 +00000-0 -41208-3 0 00002
2 21232  82.5404 241.0719 0012824   4.1919 110.1727 13.16699055    04
Epoch (UTC): 28 March 2026 22:34:40
Eccentricity: 0.0012824
inclination: 82.5404°
perigee height: 1188 km
apogee height: 1207 km
right ascension of ascending node: 241.0719°
argument of perigee: 4.1919°
revolutions per day: 13.16699055
mean anomaly at epoch: 110.1727°

The dashed part of the orbit path shows where the satellite is in the earth's shadow,  

DLR